Lapse_Rate
3.9 3.8 3.6 3.6 3.6 4.0 5.4 6.1 6.0 5.9 5.8 5.7 5.7 5.7 5.8 5.9 5.9 5.9 6.0 6.0 6.1 5.8
4.0 3.9 3.6 3.4 3.5 4.0 5.5 6.0 5.9 5.7 5.7 5.7 5.7 5.7 5.7 5.7 5.8 5.8 5.8 5.9 6.2 6.1
4.1 3.9 3.5 3.3 3.5 4.0 5.4 5.9 5.8 5.8 5.7 5.5 5.5 5.6 5.7 5.8 5.7 5.7 5.7 5.8 5.9 6.0
4.2 3.8 3.4 3.2 3.5 3.9 5.0 5.8 5.7 5.7 5.6 5.5 5.4 5.4 5.5 5.6 5.7 5.7 5.6 5.6 5.8 5.9
4.1 3.8 3.4 3.3 3.3 3.7 4.5 5.6 5.6 5.6 5.6 5.4 5.3 5.3 5.3 5.4 5.4 5.6 5.6 5.6 5.6 5.7
4.2 4.0 3.6 3.3 3.3 3.5 4.2 5.3 5.6 5.6 5.6 5.5 5.4 5.2 5.2 5.2 5.3 5.4 5.5 5.5 5.5 5.5
4.3 4.1 3.7 3.4 3.3 3.4 3.9 4.7 5.5 5.6 5.5 5.5 5.3 5.3 5.2 5.1 5.2 5.2 5.4 5.4 5.4 5.4
4.3 4.2 4.0 3.5 3.3 3.2 3.6 4.2 5.1 5.5 5.4 5.4 5.5 5.5 5.3 5.2 5.2 5.1 5.1 5.1 5.2 5.2
4.4 4.4 4.2 3.8 3.4 3.2 3.4 3.9 4.4 5.4 5.4 5.4 5.4 5.4 5.3 5.1 5.1 5.0 5.0 5.0 5.0 5.0
4.5 4.5 4.4 4.2 3.7 3.4 3.3 3.6 4.1 4.7 5.4 5.3 5.4 5.4 5.3 5.2 5.1 4.9 4.8 4.8 4.8 5.0
4.5 4.5 4.5 4.4 4.1 3.7 3.4 3.3 3.7 4.1 4.8 5.3 5.3 5.3 5.3 5.3 5.2 5.0 4.9 4.7 4.7 4.7
4.6 4.5 4.6 4.6 4.4 4.1 3.6 3.4 3.4 3.8 4.2 4.8 5.2 5.3 5.2 5.2 5.1 5.1 5.0 4.9 4.7 4.7
4.7 4.5 4.5 4.5 4.5 4.3 3.9 3.6 3.4 3.5 3.9 4.2 4.8 5.2 5.2 5.2 5.2 5.1 5.0 4.9 4.7 4.7
4.8 4.6 4.5 4.4 4.3 4.2 4.0 3.8 3.6 3.4 3.6 4.0 4.3 4.7 5.0 5.2 5.2 5.3 5.1 5.1 5.0 4.8
Wind_Speed
14 10 10 13 12 9 9 10 18 18 19 22 20 20 17 9 9 12 10 13 12 8
12 13 12 14 12 10 14 15 17 18 18 22 21 20 16 10 12 12 13 12 12 9
12 12 11 12 13 14 13 17 16 16 18 19 20 21 15 12 13 12 11 10 13 12
11 12 11 11 12 13 15 16 16 16 15 15 16 16 15 14 15 14 13 15 14 14
11 11 11 11 12 16 12 18 18 15 14 14 16 15 15 15 14 13 15 15 15 16
10 11 11 12 12 15 14 16 18 15 14 15 16 17 15 15 15 14 13 15 14 15
10 10 10 11 11 12 14 12 13 14 13 13 16 16 15 15 14 14 14 14 14 14
8 9 10 10 11 12 12 12 14 11 13 15 15 13 17 14 14 14 14 15 16 14
8 9 9 10 10 10 11 12 13 13 12 12 12 27 27 19 11 14 15 14 16 16
8 9 9 10 10 11 11 11 12 13 14 13 17 29 29 25 12 10 12 14 16 15
8 9 9 10 10 11 10 11 10 12 14 13 14 28 31 25 13 10 12 13 16 16
8 9 9 10 10 10 10 10 11 11 13 15 14 27 30 21 13 12 12 13 16 17
7 8 9 9 10 9 9 10 8 10 12 12 15 26 28 26 10 13 10 13 14 23
6 6 8 8 8 9 9 9 10 10 11 13 14 19 26 27 13 10 10 11 10 11
Wind_Direction
9 5 359 358 359 9 360 351 2 355 351 347 349 347 348 346 357 354 356 360 0 355
10 8 1 1 2 8 4 359 4 357 349 351 355 351 351 354 359 1 4 1 360 358
11 6 5 4 7 5 3 8 11 356 355 355 359 356 356 357 2 2 7 5 4 3
12 4 8 9 9 10 7 12 17 359 355 0 1 0 359 1 5 6 8 7 7 7
14 8 10 11 10 15 14 15 18 360 1 5 7 1 2 0 4 4 11 5 4 9
16 11 11 11 13 13 19 12 21 5 6 6 9 8 0 359 5 6 13 8 3 9
18 13 10 10 13 11 17 24 23 10 10 9 13 10 7 1 7 11 11 9 5 14
20 20 12 12 14 17 13 18 30 22 15 14 17 7 5 359 10 13 11 10 6 14
22 22 16 14 16 16 16 15 16 24 29 19 17 5 2 1 18 13 13 13 6 7
24 25 21 18 17 17 21 16 18 19 14 31 21 8 0 353 33 18 19 18 13 8
26 28 25 24 21 18 20 23 19 20 22 16 33 15 3 348 36 28 28 25 24 12
29 29 28 27 23 20 20 24 23 25 24 16 37 20 13 1 20 29 32 26 31 18
38 33 30 29 23 22 24 21 23 26 25 34 17 31 19 9 19 21 26 28 22 25
49 38 35 32 30 21 24 27 22 26 29 23 40 24 19 21 16 1 20 22 17 18